Regional Weather Roundup
Issued by NWS Charleston, SC

Current Version | Previous Version | Graphics & Text | Print | Product List | Glossary On
Versions: 1 2 3 4 5 6 7 8 9 10 11 12 13 14 15 16 17 18 19 20 21 22 23 24 25 26 27 28 29 30 31 32 33 34 35 36 37 38 39 40 41 42 43 44 45 46 47 48 49 50
000
ASUS42 KCHS 281512
RWRCHS

REGIONAL WEATHER ROUNDUP
NATIONAL WEATHER SERVICE CHARLESTON SC
1100 AM EDT WED JUN 28 2017

NOTE: "FAIR" INDICATES FEW OR NO CLOUDS BELOW 12,000 FEET WITH NO
SIGNIFICANT WEATHER AND/OR OBSTRUCTIONS TO VISIBILITY.

NOT ALL STATIONS ARE QUALITY CONTROLLED. USE DATA WITH CAUTION...
ESPECIALLY DEWPOINT OBSERVATIONS.

SCZ027-030-031-034>040-042>050-281600-
...SOUTHEAST SOUTH CAROLINA...

CITY           SKY/WX    TMP DP  RH WIND       PRES   REMARKS
N CHARLESTON   PTSUNNY   82  64  54 E15G21    30.15R
WATERFRONT PRK   N/A     81  71  71 E15       30.12R
JOHNS ISLAND   FAIR      82  68  61 E20       30.15R
PINOPOLIS        N/A     79  61  53 E12       30.09R
MONCKS CORNER  FAIR      79  61  53 E7        30.16R
SUMMERVILLE    FAIR      79  61  53 NE6       30.16S
BEAUFORT MCAS  PTSUNNY   82  69  64 E10       30.14S
BEAUFORT ARPT  FAIR      81  68  65 E14       30.14R
HILTON HEAD IS NOT AVBL
WALTERBORO     PTSUNNY   81  63  54 E12G17    30.16S
ALLENDALE      FAIR      81  63  54 E8        30.14S

...SOUTHERN MIDLANDS AND PEE DEE...

CITY           SKY/WX    TMP DP  RH WIND       PRES   REMARKS
GEORGETOWN     FAIR      79  55  44 E10       30.17S
KINGSTREE      FAIR      79  55  44 E8        30.18R
ORANGEBURG     MOSUNNY   80  55  42 E10       30.17R
BARNWELL       FAIR      82  61  47 E13       30.16S
AIKEN          FAIR      79  54  41 SE9       30.21R
MANNING        FAIR      79  59  50 E13G24    30.17S
COLUMBIA       MOSUNNY   82  54  37 E10       30.18R
SUMTER         SUNNY     81  51  35 E14       30.16R
FLORENCE       SUNNY     81  54  39 E13       30.19R
MYRTLE BEACH   SUNNY     82  55  39 E12       30.18R
N MYRTLE BEACH SUNNY     82  54  37 E10       30.17R

$$

GAZ063-065-086>088-099>101-113>116-118-119-134>141-150-281600-
...SOUTHEAST GEORGIA...

CITY           SKY/WX    TMP DP  RH WIND       PRES   REMARKS
SAVANNAH ARPT  CLOUDY    82  63  52 E10       30.14R
HUNTER AAF     CLOUDY    83  68  60 E12G17    30.11S
FORT STEWART   CLOUDY    81  69  67 NE9       30.11S
STATESBORO     MOSUNNY   82  68  63 NE5       30.14S
SYLVANIA       MOSUNNY   81  69  67 E6        30.16R
CLAXTON        FAIR      79  69  71 NE10      30.14R

...CSRA...CENTRAL AND FAR SOUTHEAST GEORGIA...

CITY           SKY/WX    TMP DP  RH WIND       PRES   REMARKS
THOMSON        SUNNY     81  64  56 S7        30.21S
AUGUSTA-BUSH   MOSUNNY   84  60  44 SE9       30.15R
AUGUSTA-DANIEL SUNNY     83  55  38 E10       30.17R
SWAINSBORO     FAIR      81  70  69 E9        30.15S
VIDALIA        PTSUNNY   81  72  74 E10       30.14S
EASTMAN        FAIR      82  59  44 SE6       30.15S
HAZLEHURST     FAIR      81  74  79 E7        30.12S
ALMA           MOSUNNY   80  71  74 E8        30.12S
WAYCROSS       MOSUNNY   83  78  86 E8        30.11F HX  93
JESUP          PTSUNNY   82  70  65 E9        30.12S
BAXLEY         PTSUNNY   82  77  83 E7        30.12S HX  91
BRUNSWICK      MOSUNNY   84  72  65 E14       30.11F
SAINT SIMONS   MOSUNNY   83  71  67 E13       30.11R

$$

SCZ027-028-034-036>038-045-046-048>050-GAZ119-141-281600-
...LAKE AND SUPPLEMENTAL COASTAL OBSERVATIONS...

STATION/POSITION TIME  TEMP    WIND        PRES    WAVE   SWELL
                       AIR SEA DIR/SP/G            HT/PER HT/PER/DIR
                 (UTC) (F)     (DEG/KT/KT) (MB)    (FT/S) (FT/S/D)
WINYAH BAY       1345   78      60/ 12     1021.0
LAKE MURRAY      1420   77      70/  4/ 11 1020.7
ACE BASIN NERRS  NOT AVBL
FORT PULASKI     1448   80 83   60/ 11/ 13 1020.4F
SAPELO ISLAND    1400   82      70/  8     1019.0

$$

ANZ835-935-AMZ111-154-330-350-352-354-370-450-454-472-281600-
...C-MAN AND BUOY OBSERVATIONS...

STATION/POSITION TIME  TEMP    WIND        PRES    WAVE   SWELL
                       AIR SEA DIR/SP/G            HT/PER HT/PER/DIR
                 (UTC) (F)     (DEG/KT/KT) (MB)    (FT/S) (FT/S/D)
BUOY 41004       1450   80 80   60/ 17/ 21 1019.8F   3/ 4   2/130/ 7
BUOY 41008       1450   80 82   70/ 14/ 17 1019.2R   2/ 3   2/170/ 7
FOLLY BEACH CMAN 1400   80      70/ 18/ 21 1021.2R
CAPERS NEARSHORE 1408   85 83   70/ 17/ 23 1020.1S
FRIPP NEARSHORE  1408   80 83   70/ 12/ 16 1019.7F


STATION/POSITION TIME  TEMP    WIND        PRES    WAVE   SWELL
                       AIR SEA DIR/SP/G            HT/PER HT/PER/DIR
                 (UTC) (F)     (DEG/KT/KT) (MB)    (FT/S) (FT/S/D)
5E ST. MARYS GA  1430      80                N/A     2/ 3
FRYING PAN BUOY  1450   79 80   50/ 14/ 17 1020.8R   3/ 5
BUOY 41025       1450   76 80  360/ 12/ 14 1020.9R   2/ 6   2/ 60/ 6
CAPE LOOKOUT NC  1400   78      40/ 10/ 11 1021.0R
BUOY 41002       1350   79 80   20/ 10/ 12 1019.1    3/ 7   2/170/ 7
BUOY 41010       1450   80 83   10/ 12/ 16 1018.9R   2/ 8   2/130/ 8
ST AUGUSTINE FL  1500   80 79   50/ 10/ 11 1019.6R


$$



USA.gov is the U.S. government's official web portal to all federal, state and local government web resources and services.